Regional Weather Roundup
Issued by NWS

Home | Current Version | Previous Version | Graphics & Text | Print | Product List | Glossary On
Versions: 1 2 3 4 5 6 7 8 9 10 11 12 13 14 15 16 17 18 19 20 21 22 23 24 25 26 27 28 29 30 31 32 33 34 35 36 37 38 39 40 41 42 43 44 45 46 47 48 49 50
000
ASUS45 KABQ 210110
RWRNM
WEATHER ROUNDUP FOR NEW MEXICO
NATIONAL WEATHER SERVICE ALBUQUERQUE NM
700 PM MDT WED AUG 20 2014

NOTE: "FAIR" MEANS FEW OR NO CLOUDS BELOW 12,000 FEET AGL WITH NO
       SIGNIFICANT WEATHER OR OBSTRUCTIONS TO VISION.

      THIS PRODUCT IS RELEASED AS TWO VERSIONS.  ONE VERSION NEAR
      THE TOP OF THE HOUR CONTAINING PRELIMINARY DATA FROM ALBUQUERQUE
      AND OTHER STATIONS.  A FINAL VERSION WITH ADDITIONAL DATA IS
      ISSUED ABOUT 10 MINUTES AFTER THE HOUR.

NMZ501-503-504-510>518-210200-
NORTHWEST PLATEAU/NORTHCENTRAL MOUNTAINS

CITY           SKY/WX    TMP DP  RH WIND       PRES   REMARKS
FARMINGTON     SUNNY     81  36  19 NW12      30.03F
LOS ALAMOS     PTCLDY    74  40  29 W14       30.15S
SANTA FE       PTCLDY    80  40  23 W13G21    30.07R
TAOS           CLEAR     77  37  24 W13       30.13R
ANGEL FIRE     FAIR      69  36  29 W8        30.22S

$$
NMZ402-403-502-505>509-210200-
WESTCENTRAL MOUNTAINS/SOUTHWEST MOUNTAINS

CITY           SKY/WX    TMP DP  RH WIND       PRES   REMARKS
GALLUP         PTSUNNY   75  39  27 CALM      30.13F
SILVER CITY    CLEAR     81  46  30 W14       30.08S

$$
NMZ407-409-411-412-210200-
SOUTHERN DESERTS

CITY           SKY/WX    TMP DP  RH WIND       PRES   REMARKS
LORDSBURG      FAIR      79  46  31 W15       30.01F
DEMING         CLEAR     85  44  23 W18       29.97F
LAS CRUCES     PTCLDY    87  42  20 W16       29.98S
HOLLOMAN AFB   CLEAR     88  50  27 W6        29.92S
ALAMOGORDO     PTCLDY    86  50  28 W5        29.95R
T OR C         CLOUDY    85  45  24 NW6       29.98S

$$
NMZ519>523-210200-
CENTRAL VALLEYS/CENTRAL HIGHLANDS

CITY           SKY/WX    TMP DP  RH WIND       PRES   REMARKS
ALBUQUERQUE    PTCLDY    84  44  24 SW10      30.02F
DOUBLE EAGLE   PTCLDY    81  43  26 W8        30.06F
MORIARTY ARPT  FAIR      78  41  26 NW13      30.08S
CLINES CORNERS CLEAR     75  42  30 W16       30.12S
BELEN          FAIR      80  45  28 CALM      30.02S
SOCORRO        FAIR      85  44  23 NE5       29.99S

$$
NMZ524>526-539-540-210200-
SOUTHCENTRAL MOUNTAINS

CITY           SKY/WX    TMP DP  RH WIND       PRES   REMARKS
RUIDOSO        CLEAR     68  57  68 SW3       30.17S

$$
NMZ527>531-210200-
NORTHEAST HIGHLANDS/NORTHEAST PLAINS

CITY           SKY/WX    TMP DP  RH WIND       PRES   REMARKS
LAS VEGAS      MOCLDY    73  50  44 N12       30.10R
RATON          MOCLDY    74  51  44 S8        30.02R
CLAYTON        PTCLDY    88  47  24 S18       29.91S

$$
NMZ532>537-210200-
EASTCENTRAL PLAINS

CITY           SKY/WX    TMP DP  RH WIND       PRES   REMARKS
TUCUMCARI      MOCLDY    92  51  24 SW14      29.87R
CANNON AFB     MOCLDY    83  59  42 S10       29.95R
CLOVIS AIRPORT   N/A     81  61  50 SE9       29.97R

$$
NMZ028-029-538-210200-
SOUTHEAST PLAINS

CITY           SKY/WX    TMP DP  RH WIND       PRES   REMARKS
ROSWELL        CLEAR     88  56  33 NW13      29.89R
ARTESIA        PTCLDY    91  54  27 S7        29.88R
CARLSBAD       MOCLDY    95  49  20 E12G17    29.85S
HOBBS          MOCLDY    91  52  25 S21G26    29.91S


$$



USA.gov is the U.S. government's official web portal to all federal, state and local government web resources and services.